User: anonymous   Login
Location: Deer Lake
(49.1830°N, 57.4330°W)
Time: 12:24:21
(UTC-03:-30)
Language:

Cosmos 1707 - Orbit

View from above orbital plane
View from above orbital plane
View from above satellite
View from above satellite

Ground track
Ground track

The orbit data is extracted from the following two-line orbital elements,

1 16326U 85113A   18022.93502255 +.00000569 +00000-0 +29963-4 0  9993
2 16326 082.5116 352.4326 0008849 262.2028 097.8199 15.13587699750301
Epoch (UTC): 22 January 2018 22:26:25
Eccentricity: 0.0008849
inclination: 82.5116°
perigee height: 519 km
apogee height: 531 km
right ascension of ascending node: 352.4326°
argument of perigee: 262.2028°
revolutions per day: 15.13587699
mean anomaly at epoch: 97.8199°
orbit number at epoch: 75030

The dashed part of the orbit path shows where the satellite is in the earth's shadow,  

DLR